Fri, 15 Oct 2021 20:00:52 UTC

Information for RPM brotli-1.0.9-3.fc33.armv7hl.rpm

ID23451959
Namebrotli
Version1.0.9
Release3.fc33
Epoch
Archarmv7hl
SummaryLossless compression algorithm
DescriptionBrotli is a generic-purpose lossless compression algorithm that compresses data using a combination of a modern variant of the LZ77 algorithm, Huffman coding and 2nd order context modeling, with a compression ratio comparable to the best currently available general-purpose compression methods. It is similar in speed with deflate but offers more dense compression.
Build Time2020-10-09 11:43:12 GMT
Size324,797
4f541626210844ccabbd97db99d52627
LicenseMIT
Buildrootf33-build-23246724-2219872
Provides
brotli = 1.0.9-3.fc33
brotli(armv7hl-32) = 1.0.9-3.fc33
Obsoletes No Obsoletes
Conflicts No Conflicts
Requires
ld-linux-armhf.so.3
ld-linux-armhf.so.3(GLIBC_2.4)
libbrotli(armv7hl-32) = 1.0.9-3.fc33
libc.so.6
libc.so.6(GLIBC_2.4)
libgcc_s.so.1
libgcc_s.so.1(GCC_3.5)
libm.so.6
libm.so.6(GLIBC_2.29)
rpmlib(CompressedFileNames) <= 3.0.4-1
rpmlib(FileDigests) <= 4.6.0-1
rpmlib(PayloadFilesHavePrefix) <= 4.0-1
rpmlib(PayloadIsZstd) <= 5.4.18-1
rtld(GNU_HASH)
Recommends No Recommends
Suggests No Suggests
Supplements No Supplements
Enhances No Enhances
Files
1 through 4 of 4
Name ascending sort Size
/usr/bin/brotli746,992
/usr/lib/.build-id0
/usr/lib/.build-id/450
/usr/lib/.build-id/45/fd4cf66c64ce661b9398446b443bddb3481f4b26
Component of
Page:
1 through 50 of 1361 >>>
Buildroot descending sort Created State
f33-build-30540226-4182509 2021-10-15 17:19:33 expired
f33-build-30540179-4182509 2021-10-15 17:11:15 expired
f33-build-30529881-4182509 2021-10-15 06:27:07 expired
f33-build-30524742-4182509 2021-10-15 02:10:55 expired
f33-build-30523085-4182509 2021-10-15 00:49:41 expired
f33-build-30509233-4179230 2021-10-14 12:21:55 expired
f33-build-30488014-4175270 2021-10-13 08:14:39 expired
f33-build-30479955-4173335 2021-10-12 22:06:26 expired
f33-build-30479859-4173335 2021-10-12 22:02:12 expired
f33-build-30478466-4173335 2021-10-12 18:59:40 expired
f33-build-30478003-4173335 2021-10-12 17:51:01 expired
f33-build-30477455-4173335 2021-10-12 16:06:55 expired
f33-build-30477399-4173335 2021-10-12 15:59:25 expired
f33-build-30473409-4171137 2021-10-12 08:52:46 expired
f33-build-30457359-4167519 2021-10-11 16:41:14 expired
f33-build-30399147-4165565 2021-10-09 11:54:30 expired
f33-build-30387102-4165565 2021-10-09 00:52:13 expired
f33-build-30380990-4161382 2021-10-08 18:00:40 expired
f33-build-30379552-4161382 2021-10-08 15:33:38 expired
f33-build-30377489-4161382 2021-10-08 12:48:47 expired
f33-build-30377191-4161382 2021-10-08 12:30:48 expired
f33-build-30377190-4161382 2021-10-08 12:30:47 expired
f33-build-30376608-4161382 2021-10-08 12:00:34 expired
f33-build-30362608-4161382 2021-10-07 21:21:39 expired
f33-build-30358367-4161382 2021-10-07 16:36:46 expired
f33-build-30357854-4158281 2021-10-07 16:05:30 expired
f33-build-30357513-4158281 2021-10-07 15:36:17 expired
f33-build-30357510-4158281 2021-10-07 15:35:47 expired
f33-build-30357500-4158281 2021-10-07 15:35:20 expired
f33-build-30357499-4158281 2021-10-07 15:35:19 expired
f33-build-30356143-4158281 2021-10-07 13:42:50 expired
f33-build-30354914-4158281 2021-10-07 12:00:10 expired
f33-build-30345241-4158281 2021-10-07 02:11:54 expired
f33-build-30342557-4158281 2021-10-06 23:45:42 expired
f33-build-30340500-4157476 2021-10-06 20:02:37 expired
f33-build-30338445-4157476 2021-10-06 18:26:11 expired
f33-build-30330037-4155725 2021-10-06 07:34:03 expired
f33-build-30317755-4151517 2021-10-05 15:34:12 expired
f33-build-30317405-4151517 2021-10-05 15:18:46 expired
f33-build-30317300-4151517 2021-10-05 15:14:32 expired
f33-build-30317074-4151517 2021-10-05 15:02:47 expired
f33-build-30314066-4151517 2021-10-05 10:39:35 expired
f33-build-30313719-4151324 2021-10-05 10:13:50 expired
f33-build-30311762-4150088 2021-10-05 08:04:01 expired
f33-build-30301510-4147524 2021-10-04 21:55:31 expired
f33-build-30299699-4147524 2021-10-04 20:04:30 expired
f33-build-30299535-4147524 2021-10-04 19:33:43 expired
f33-build-30295841-4147524 2021-10-04 14:13:21 expired
f33-build-30294132-4145954 2021-10-04 11:18:34 expired
f33-build-30287138-4145456 2021-10-04 01:01:45 expired